Regional Weather Roundup
Issued by NWS Sioux Falls, SD

Home | Current Version | Previous Version | Text Only | Print | Product List | Glossary On
Versions: 1 2 3 4 5 6 7 8 9 10 11 12 13 14 15 16 17 18 19 20 21 22 23 24 25 26 27 28 29 30 31 32 33 34 35 36 37 38 39 40 41 42 43 44 45 46 47 48 49 50
000
ASUS43 KFSD 240410
RWRFSD

WEATHER ROUNDUP FOR SE SOUTH DAKOTA/SW MINNESOTA/NW IOWA
NATIONAL WEATHER SERVICE SIOUX FALLS SD
1100 PM CDT THU MAR 23 2017

NOTE: "FAIR" INDICATES FEW OR NO CLOUDS BELOW 12,000 FEET WITH NO
SIGNIFICANT WEATHER AND OR OBSTRUCTIONS TO VISIBILITY.


SDZ038>040-050-052>070-240500-
SOUTHEAST SOUTH DAKOTA

CITY           SKY/WX    TMP DP  RH WIND       PRES   REMARKS
BROOKINGS      CLOUDY    38  38 100 N7        29.78R FOG
CHAMBERLAIN    CLOUDY    46  46  99 N12       29.77S
HURON          CLOUDY    41  41 100 N7        29.80R
MADISON        CLOUDY    39  39 100 NE5       29.77R FOG
MITCHELL       CLOUDY    45  45 100 N9        29.78R FOG
SIOUX FALLS    CLOUDY    45  40  82 NE8       29.73S
WINNER         FOG       48  47  96 NE9       29.77R VSB 1/4
YANKTON        CLOUDY    50  45  81 N10G23    29.72R
$$

MNZ071-072-080-081-089-090-097-098-240500-
SOUTHWEST MINNESOTA

CITY           SKY/WX    TMP DP  RH WIND       PRES   REMARKS
FAIRMONT       CLOUDY    41  37  86 SE12      29.76S
JACKSON        CLOUDY    37  36  93 E6        29.75R
LUVERNE        CLOUDY    41  36  81 N10       29.74S
MARSHALL       CLOUDY    37  36  96 SE7       29.80R
MONTEVIDEO     DRIZZLE   36  36 100 E6        29.84R
PIPESTONE      CLOUDY    39  36  87 E7        29.76R
REDWOOD FALLS  LGT RAIN  38  35  89 E9        29.79S FOG
TRACY          CLOUDY    37  37  97 NE5       29.79R FOG
WINDOM         CLOUDY    41  36  81 NE5       29.77R
WORTHINGTON    CLOUDY    39  36  89 N7        29.75R
$$

IAZ001>003-012>014-020>022-031-032-NEZ013-014-SDZ071-240500-
NORTHWEST IOWA

CITY           SKY/WX    TMP DP  RH WIND       PRES   REMARKS
CHEROKEE       CLOUDY    47  39  72 E6        29.69F
ESTHERVILLE    CLOUDY    41  39  93 SE12      29.75R
LE MARS        CLOUDY    52  41  66 SE16G22   29.65F
ORANGE CITY    CLOUDY    48  41  76 E7        29.69S
SHELDON        CLOUDY    45  45 100 E14G20    29.67F
SIOUX CITY     CLOUDY    54  46  74 SE10      29.62F
SPENCER        CLOUDY    44  38  79 SE14      29.73S
STORM LAKE     CLOUDY    43  37  81 E8        29.71S
$$

ABBREVIATIONS USED IN REMARKS
   TC - TEMPERATURE IN CELSIUS
  WCI - WIND CHILL INDEX
   HX - HEAT INDEX
  VSB - VISIBILITY





USA.gov is the U.S. government's official web portal to all federal, state and local government web resources and services.